Location: El Limón
(10.3059°N, 67.6321°W)
Time: 04:11:45
(UTC+00:00)

ATLAS 2AS CENTAUR R/B - Pass Details

Date: 14 April 2024
Orbit: 1015 x 1195 km, 63.7° (Epoch: 21 May)

Event Time Altitude Azimuth Distance (km) Brightness Sun altitude
Exits shadow 08:19:45 24° 328° (NNW) 2,207 4.2 -29.7°
Drops below altitude 10° 08:23:29 10° 354° (N) 3,071 5.2 -28.8°
Sets 08:26:35 0° 5° (N) 4,010 6.0 -28.0°
